Location: Huntsville
(41.2590°N, 111.7678°W)
Time: 07:49:01
(UTC+00:00)

Vanguard 3 - Pass Details

Date: 17 June 2021
Orbit: 508 x 3261 km, 33.4° (Epoch: 29 July)

Event Time Altitude Azimuth Distance (km) Brightness Sun altitude
Rises 15:40:10 0° 235° (SW) 2,626 9.4 39.6°
Reaches altitude 10° 15:42:22 10° 221° (SW) 1,828 8.8 40.0°
Maximum altitude 15:45:47 27° 162° (SSE) 1,267 8.7 40.7°
Drops below altitude 10° 15:50:22 10° 106° (ESE) 2,502 10.8 41.5°
Sets 15:53:56 0° 95° (E) 3,859 11.5 42.2°
